Weather Roundup
Issued by NWS Chicago, IL

Home | Current Version | Previous Version | Text Only | Print | Product List | Glossary Off
Versions: 1 2 3 4 5 6 7 8 9 10 11 12 13 14 15 16 17 18 19 20 21 22 23 24 25 26 27 28 29 30 31 32 33 34 35 36 37 38 39 40 41 42 43 44 45 46 47 48 49 50

000
NZUS59 KLOT 291713
HRRLOT

CHICAGO AREA WEATHER ROUNDUP
NATIONAL WEATHER SERVICE CHICAGO/ROMEOVILLE IL
1200 PM CDT FRI MAY 29 2015

NOTE: "FAIR" INDICATES FEW OR NO CLOUDS BELOW 12,000 FEET WITH NO
SIGNIFICANT WEATHER AND/OR OBSTRUCTIONS TO VISIBILITY.

* THESE STATIONS ARE NOT UNDER NWS QUALITY CONTROL. THEY ALSO MAY NOT
  REPORT WEATHER SUCH AS PRECIPITATION OR FOG.

ILZ005-006-012>014-019>023-291800-
NORTHEAST ILLINOIS

CITY           SKY/WX    TMP DP  RH WIND       PRES   REMARKS
OHARE          LGT RAIN  71  66  84 S9        30.02R
MIDWAY         LGT RAIN  72  67  84 SW12G24   30.03R FOG
AURORA         PTSUNNY   78  66  66 S15G22    30.01F HX  80
LANSING*       HVY RAIN  73  65  75 SW14      30.03S
JOLIET*        CLOUDY    75  69  83 SW7       30.02F
WAUKEGAN       CLOUDY    73  64  73 SE7       29.99F
DUPAGE AIRPORT CLOUDY    75  68  78 S14       30.01F
WHEELING       RAIN      74  66  76 SW14G26   30.03R
KANKAKEE*      CLOUDY    80  67  64 S21       30.04F HX  82
MORRIS*        PTSUNNY   77  70  77 S13       30.00F
LEWIS AIRPORT* CLOUDY    72  67  83 S13       30.02F
NORTHERLY IS     N/A     76  63  64 S14         N/A
$$

WIZ051-052-058>065-066-070>072-291800-
SOUTHEAST WISCONSIN

CITY           SKY/WX    TMP DP  RH WIND       PRES   REMARKS
MILWAUKEE      CLOUDY    77  64  64 S12G20    29.98F
KENOSHA*       CLOUDY    79  66  64 SW8       30.00F HX  81
RACINE*        CLOUDY    72  63  73 S14       30.01F HAZE
BURLINGTON     RAIN      72  65  80 S14G21    30.00R
WAUKESHA       LGT RAIN  72  66  83 SW12      30.00F
WEST BEND      PTSUNNY   79  63  57 S9G16     29.98F HX  80
$$

INZ001>003-010>013-019-020-291800-
NORTHWEST INDIANA

CITY           SKY/WX    TMP DP  RH WIND       PRES   REMARKS
GARY*          LGT RAIN  81  64  57 S14G28    30.02F HX  82
MICHIGAN CITY* NOT AVBL
RENSSELAER*    NOT AVBL
VALPARAISO     MOSUNNY   81  64  56 S14G23    30.04F HX  82
$$

LMZ740>746-291800-
SOUTHERN LAKE MICHIGAN

STATION/POSITION TIME  SKY/WX   TEMP WIND        PRES    VSBY
                                AIR  DIR/SP/G
                 (UTC)          (F)  (DEG/KT/KT) (MB)    (MI)
HARRISON CRIB    1600            72  160/ 15/ 19   N/A
BURNHAM HARBOR   1700            75  200/  6/ 19   N/A
CALUMET HARBOR   1600            79  170/ 12/ 14   N/A
BURNS HARBOR     1600            78  210/ 14/ 19 1017.6F
MICHIGAN CITY    1600            78  170/ 12/ 16   N/A
$$

ABBREVIATIONS USED IN REMARKS
   TC - TEMPERATURE IN CELSIUS
  WCI - WIND CHILL INDEX
   HX - HEAT INDEX
  VSB - VISIBILITY
$$


USA.gov is the U.S. government's official web portal to all federal, state and local government web resources and services.